Wind_Speed
40 39 40 41 40 40 38 38 39 39 40 41 40 41 42 43 43 43 43 41 40 40 41 40 39 39 38 37 37 37 37 37 37 37 36 36 37 36 37 37 37 38 39
39 39 38 40 40 41 39 37 37 39 40 40 40 41 43 44 44 43 42 42 42 42 42 41 41 40 39 38 38 39 39 39 38 38 38 38 38 38 38 39 38 39 39
37 38 38 39 38 39 39 38 39 39 41 40 41 42 43 44 44 44 44 44 43 43 43 43 42 42 41 41 40 40 39 39 39 39 39 39 39 38 38 39 40 41 42
36 37 39 39 39 39 39 39 39 40 41 40 39 41 44 45 45 46 47 46 45 44 45 44 44 45 44 42 41 40 40 40 40 40 41 41 42 41 41 42 43 43 42
34 36 37 38 38 37 37 37 38 39 40 40 40 41 43 44 45 46 47 47 46 46 46 46 45 45 44 44 44 43 42 42 42 42 43 43 44 44 44 43 43 42 42
32 34 36 37 37 38 37 38 37 38 39 40 41 41 42 44 45 46 46 47 47 47 47 47 46 45 45 45 44 44 44 43 43 44 44 44 44 45 44 43 43 43 43
30 32 35 36 37 38 39 40 40 40 40 40 40 41 42 44 46 46 46 47 47 47 46 46 46 46 46 45 46 45 45 45 45 45 45 45 46 45 44 44 44 44 44
27 30 32 35 36 38 39 39 40 41 40 39 40 43 44 45 45 46 47 48 48 47 46 45 45 45 46 45 46 45 46 46 46 45 45 45 45 44 45 45 45 45 44
25 28 30 31 33 36 38 39 41 41 41 41 41 42 43 45 45 46 48 49 49 48 47 47 47 46 46 47 47 47 47 46 45 45 45 45 45 45 46 46 46 45 44
24 26 28 31 33 35 37 40 41 41 42 43 42 42 43 44 45 46 47 47 48 47 47 47 47 46 47 47 48 48 47 47 46 46 46 45 46 46 45 45 45 45 45
24 25 27 30 33 36 38 40 41 42 42 43 43 42 42 45 47 47 47 48 48 48 48 48 48 47 47 47 47 47 47 47 47 47 47 45 44 44 45 45 45 44 44
25 27 29 31 34 36 38 40 41 42 42 43 44 44 44 44 46 47 47 48 48 47 47 48 48 47 46 46 46 47 47 47 46 45 45 44 44 44 44 44 44 44 43
27 29 32 33 35 37 38 40 41 42 42 42 43 45 44 44 44 45 46 47 48 48 48 48 47 47 47 46 46 46 45 45 45 44 44 44 43 43 43 43 42 42 41
28 30 31 33 35 36 37 38 40 41 42 43 43 44 44 44 44 45 46 46 46 47 48 47 47 47 46 46 46 44 43 42 42 42 42 42 41 41 41 41 41 40 39
28 29 30 31 33 34 35 37 39 40 42 43 43 44 45 45 44 45 45 44 44 44 44 44 44 44 45 44 44 44 43 42 42 41 41 40 40 40 40 40 40 39 39
26 28 29 30 31 33 34 36 38 39 40 41 42 43 44 45 44 45 45 44 44 44 44 43 44 44 44 43 43 42 43 43 42 41 40 39 39 39 38 38 38 38 37
25 27 28 29 30 32 34 35 37 38 39 40 41 42 43 43 43 43 43 42 43 43 44 43 44 44 44 43 42 42 42 42 41 40 38 37 37 37 38 37 37 37 37
25 27 29 29 29 30 31 32 33 35 37 39 40 41 42 42 42 42 42 41 41 41 41 41 42 42 42 42 41 41 40 39 39 38 38 37 37 37 37 37 37 36 36
25 26 27 28 29 29 29 29 30 31 34 36 38 39 39 40 40 40 40 40 40 40 40 40 39 39 39 39 39 38 38 38 38 37 37 37 36 36 36 35 35 34 34
26 27 27 27 28 28 28 28 28 29 30 32 34 36 37 38 39 39 38 38 38 38 38 38 38 37 37 37 37 37 38 37 37 37 37 36 36 35 35 35 34 33 33
27 26 26 26 26 26 27 27 27 28 29 30 31 33 34 35 36 37 37 37 37 36 36 36 36 36 36 36 36 37 37 37 37 36 36 35 35 35 35 34 33 33 32
25 25 24 24 25 25 26 26 26 27 28 28 29 29 30 31 32 34 34 35 35 35 34 34 35 35 35 36 36 36 35 35 35 35 35 34 34 34 33 33 32 32 31
24 24 23 23 24 25 25 25 25 26 26 27 27 27 28 29 31 32 33 34 34 34 33 33 34 34 35 35 35 34 34 34 34 34 34 33 33 32 32 32 31 31 30
23 24 24 24 24 24 25 24 25 25 25 25 26 26 27 28 29 30 31 32 32 32 32 32 33 33 33 33 33 33 33 33 33 33 32 32 31 31 31 31 31 31 30
24 24 25 24 24 24 24 25 25 25 24 24 24 25 25 27 28 28 28 29 30 31 32 32 32 33 33 33 32 32 32 32 31 31 31 31 31 31 31 31 31 31 30
25 25 25 24 24 25 25 25 25 25 24 24 24 25 25 25 26 26 27 27 28 29 30 31 31 32 32 33 33 32 32 31 31 31 31 31 31 31 31 30 30 30 30
Wind_Direction
216 217 219 219 221 223 224 226 229 228 229 231 231 233 235 236 236 238 240 243 245 247 250 252 253 255 257 259 261 263 265 268 269 270 271 273 275 278 279 281 283 284 285
220 220 219 221 222 225 227 229 231 230 231 232 233 236 239 238 237 239 241 244 246 249 251 253 255 255 257 260 262 263 266 267 269 271 273 275 276 277 280 281 283 285 286
223 224 226 226 226 228 231 234 233 233 234 235 237 237 238 240 241 242 243 245 247 249 251 253 255 256 257 259 262 263 265 267 269 271 274 276 277 278 280 281 283 285 287
226 228 229 231 233 233 235 237 237 237 238 239 240 242 242 243 244 245 246 248 249 250 251 253 256 257 258 259 261 264 266 268 271 274 275 276 278 279 281 282 283 285 285
230 231 232 234 236 238 240 242 242 244 245 246 248 248 247 247 247 248 249 251 252 253 253 254 257 258 259 260 262 264 266 269 272 274 275 277 279 280 282 281 282 283 284
233 235 237 239 241 244 246 246 249 249 250 252 253 253 251 250 250 251 252 253 253 255 256 255 257 259 260 261 263 265 267 269 271 273 276 277 279 280 281 282 281 283 284
236 239 241 244 246 248 250 251 253 255 257 258 258 256 256 255 254 252 253 253 253 255 256 258 259 261 261 262 263 265 268 270 272 274 277 278 279 279 280 280 281 282 283
242 243 245 246 248 249 251 253 255 257 259 261 262 261 260 259 259 257 256 255 255 255 256 257 258 260 262 263 264 265 268 270 272 274 276 278 278 278 279 279 280 283 284
248 249 251 252 251 252 253 255 257 259 260 261 262 263 263 262 261 261 260 258 257 256 256 258 259 261 262 263 264 266 268 270 273 275 276 277 278 278 279 280 282 283 284
250 254 255 257 258 258 258 259 260 261 262 263 263 263 262 262 261 262 261 259 258 258 258 258 259 261 263 264 266 267 269 270 272 275 277 277 278 279 280 281 282 283 284
255 258 260 261 262 263 262 262 263 263 264 265 263 262 262 261 260 261 262 262 261 260 259 259 260 262 264 265 266 268 269 271 273 276 277 278 279 279 279 280 282 282 283
262 262 262 265 265 265 265 266 266 266 265 264 263 262 261 261 261 261 262 262 262 261 260 260 260 262 263 265 266 268 270 273 274 275 276 277 278 279 279 280 281 281 281
268 268 267 267 266 266 266 267 267 267 266 265 265 264 262 262 262 262 263 263 263 262 262 261 261 261 263 265 267 269 271 272 273 274 275 276 277 278 278 279 280 281 281
272 273 272 270 269 269 269 268 268 267 266 266 266 264 264 264 264 264 264 264 264 263 262 261 262 262 264 265 268 269 271 271 272 272 274 275 276 278 278 279 280 280 280
278 277 277 276 274 272 271 270 270 268 266 266 266 266 265 265 265 265 266 265 264 263 263 263 263 264 264 266 268 268 269 271 272 273 275 276 276 278 278 278 279 279 279
283 281 279 279 276 273 272 272 271 269 267 265 264 265 266 267 266 267 267 266 264 264 264 264 265 266 266 267 269 269 270 271 272 273 274 275 275 277 278 278 277 277 277
287 285 285 284 280 276 275 274 272 270 268 266 265 265 265 267 267 267 268 266 264 264 264 265 266 267 267 268 268 268 268 268 270 271 273 274 275 276 276 276 276 276 276
291 289 288 286 284 282 280 278 275 272 271 268 266 266 266 266 266 267 267 265 263 263 264 265 266 266 266 266 266 267 266 267 268 270 271 273 275 276 276 276 276 276 276
297 295 294 291 290 288 285 283 280 278 275 272 269 267 267 267 266 266 265 263 260 260 262 263 265 266 266 265 264 265 265 266 267 268 270 273 274 274 275 275 274 274 275
303 299 296 294 293 290 288 286 283 281 279 277 274 270 269 269 267 265 264 262 260 259 260 262 263 263 263 262 263 264 265 265 265 267 268 270 270 271 273 274 274 274 274
308 305 300 297 296 294 293 290 286 285 283 281 278 274 272 270 268 266 264 262 260 259 260 260 260 260 261 262 262 264 265 264 265 266 267 268 269 271 272 273 274 273 273
313 310 307 301 298 299 298 295 290 288 287 285 281 277 274 271 269 265 262 259 258 258 259 258 258 259 260 261 262 263 262 263 264 266 266 267 268 270 270 271 272 272 271
315 313 310 305 302 302 301 297 294 293 290 287 284 279 274 272 270 267 263 260 257 257 257 257 256 258 259 260 260 259 260 262 263 264 265 266 267 269 269 270 271 271 271
313 312 311 308 307 305 303 301 299 297 293 290 286 282 278 273 270 268 267 263 258 256 255 256 256 257 258 259 258 258 259 260 261 263 264 265 266 267 268 270 270 270 270
312 311 310 308 306 304 303 304 302 300 297 294 290 286 284 278 273 268 267 264 259 256 256 254 254 256 257 257 257 257 258 258 259 261 264 266 266 267 268 269 269 269 268
312 311 309 307 305 304 303 303 301 300 301 298 295 291 288 284 275 268 266 263 259 257 256 254 254 256 255 255 255 256 257 258 260 261 264 266 267 267 267 268 268 268 267
Height
5722 5728 5733 5738 5744 5750 5755 5760 5764 5767 5771 5774 5777 5780 5783 5786 5789 5792 5794 5796 5798 5799 5801 5803 5804 5805 5806 5806 5806 5806 5806 5806 5806 5806 5805 5805 5804 5803 5802 5800 5799 5798 5796
5717 5722 5726 5733 5738 5743 5748 5753 5757 5761 5764 5767 5770 5773 5776 5778 5781 5783 5785 5787 5789 5791 5793 5794 5795 5796 5797 5798 5798 5798 5798 5798 5798 5798 5797 5797 5796 5794 5793 5792 5790 5789 5787
5712 5717 5721 5727 5732 5737 5742 5746 5750 5753 5756 5759 5762 5764 5767 5769 5772 5774 5776 5778 5780 5782 5784 5785 5786 5787 5788 5789 5789 5788 5789 5789 5789 5789 5788 5788 5787 5786 5785 5783 5781 5780 5778
5707 5712 5717 5722 5726 5730 5734 5738 5742 5745 5748 5750 5753 5756 5758 5761 5763 5765 5767 5769 5771 5772 5774 5775 5776 5778 5779 5779 5779 5779 5779 5780 5780 5779 5779 5778 5777 5776 5776 5775 5773 5771 5769
5703 5707 5711 5716 5720 5724 5727 5731 5734 5737 5740 5742 5745 5747 5749 5752 5754 5756 5758 5760 5762 5763 5764 5765 5766 5767 5769 5769 5770 5770 5770 5770 5770 5770 5769 5768 5767 5766 5765 5765 5763 5761 5759
5699 5702 5706 5710 5714 5718 5721 5724 5726 5729 5732 5734 5736 5738 5740 5742 5743 5745 5747 5749 5751 5752 5754 5755 5756 5757 5758 5759 5759 5760 5760 5760 5760 5759 5759 5758 5757 5755 5754 5754 5752 5751 5749
5695 5698 5701 5704 5708 5711 5714 5716 5718 5720 5722 5724 5726 5727 5729 5730 5732 5734 5735 5737 5739 5741 5743 5744 5745 5747 5747 5748 5749 5749 5749 5749 5749 5749 5748 5747 5746 5745 5743 5743 5741 5740 5739
5690 5693 5696 5698 5701 5703 5706 5708 5710 5711 5713 5714 5715 5716 5717 5718 5720 5722 5723 5725 5727 5729 5731 5732 5733 5735 5736 5737 5738 5738 5738 5738 5738 5738 5737 5736 5735 5734 5733 5732 5730 5729 5728
5686 5688 5690 5692 5694 5696 5698 5699 5700 5702 5703 5704 5704 5704 5705 5706 5707 5709 5710 5712 5714 5716 5718 5720 5722 5723 5724 5725 5726 5726 5727 5726 5726 5726 5726 5725 5724 5722 5722 5720 5719 5718 5717
5682 5683 5684 5685 5687 5688 5689 5690 5691 5691 5692 5692 5692 5693 5694 5695 5696 5697 5698 5700 5702 5703 5705 5707 5709 5711 5712 5713 5714 5715 5715 5715 5714 5714 5713 5713 5712 5711 5710 5709 5708 5706 5705
5676 5677 5678 5678 5679 5680 5680 5680 5681 5681 5681 5681 5681 5682 5682 5683 5684 5685 5686 5687 5689 5691 5693 5695 5697 5698 5700 5701 5702 5702 5702 5702 5702 5702 5701 5701 5700 5699 5699 5698 5696 5695 5693
5669 5670 5670 5670 5670 5670 5670 5670 5670 5670 5670 5670 5670 5671 5671 5672 5672 5673 5674 5675 5676 5678 5680 5682 5684 5686 5687 5688 5689 5690 5690 5690 5690 5690 5689 5689 5688 5688 5687 5686 5685 5683 5682
5662 5661 5661 5660 5660 5660 5659 5659 5659 5659 5659 5658 5659 5658 5658 5659 5660 5661 5661 5663 5664 5666 5668 5670 5671 5673 5674 5675 5676 5677 5677 5677 5677 5678 5678 5677 5677 5676 5676 5675 5673 5672 5670
5653 5652 5651 5650 5649 5648 5648 5648 5647 5647 5647 5647 5646 5646 5646 5647 5648 5648 5649 5650 5652 5653 5655 5657 5659 5660 5662 5662 5664 5664 5664 5665 5665 5666 5666 5666 5665 5665 5664 5663 5662 5661 5660
5645 5643 5642 5640 5639 5638 5637 5636 5636 5635 5635 5634 5634 5634 5634 5635 5635 5636 5636 5638 5639 5641 5642 5644 5646 5647 5649 5650 5651 5652 5652 5653 5654 5654 5654 5654 5654 5653 5653 5652 5651 5650 5649
5636 5635 5633 5631 5629 5628 5627 5626 5625 5623 5622 5622 5622 5622 5622 5622 5622 5623 5624 5625 5627 5629 5630 5632 5633 5635 5637 5638 5639 5640 5640 5641 5642 5642 5642 5643 5643 5642 5642 5641 5640 5639 5639
5629 5627 5624 5622 5620 5618 5616 5615 5613 5612 5610 5610 5610 5610 5610 5610 5610 5611 5611 5613 5614 5616 5618 5620 5621 5623 5624 5625 5626 5627 5629 5630 5631 5631 5631 5631 5631 5631 5631 5630 5629 5629 5628
5621 5619 5616 5613 5610 5608 5606 5604 5602 5600 5599 5598 5597 5598 5598 5598 5599 5599 5600 5601 5603 5605 5606 5608 5610 5611 5612 5613 5614 5616 5617 5618 5619 5620 5620 5620 5620 5620 5620 5619 5619 5618 5617
5613 5610 5607 5604 5601 5598 5596 5593 5591 5590 5588 5586 5585 5585 5586 5586 5587 5587 5588 5589 5591 5593 5595 5596 5598 5599 5600 5601 5603 5604 5605 5606 5608 5608 5609 5609 5609 5609 5609 5609 5608 5607 5607
5605 5602 5599 5596 5593 5590 5587 5585 5582 5580 5579 5577 5576 5575 5575 5575 5575 5576 5577 5578 5580 5581 5583 5585 5586 5587 5589 5590 5592 5593 5594 5596 5597 5597 5598 5598 5598 5598 5598 5598 5598 5597 5597
5597 5593 5590 5587 5585 5582 5579 5576 5574 5572 5570 5568 5566 5565 5565 5564 5564 5565 5566 5567 5568 5570 5572 5573 5575 5576 5578 5579 5580 5582 5583 5585 5586 5586 5587 5587 5588 5588 5587 5587 5587 5587 5587
5591 5586 5583 5580 5577 5575 5571 5568 5566 5564 5561 5559 5558 5556 5555 5555 5554 5554 5555 5556 5557 5559 5560 5562 5564 5566 5567 5569 5570 5571 5572 5574 5575 5576 5576 5577 5577 5577 5577 5577 5577 5577 5577
5585 5581 5577 5574 5571 5568 5565 5562 5559 5556 5554 5552 5550 5548 5546 5546 5545 5545 5545 5546 5547 5549 5550 5552 5554 5555 5557 5558 5560 5561 5562 5563 5564 5565 5566 5566 5567 5567 5567 5568 5567 5567 5567
5579 5575 5572 5568 5565 5562 5558 5555 5552 5549 5547 5544 5542 5540 5539 5538 5537 5536 5536 5536 5537 5539 5541 5542 5544 5546 5547 5549 5550 5551 5552 5553 5554 5555 5556 5557 5557 5557 5558 5558 5558 5558 5558
5573 5569 5566 5562 5559 5556 5553 5549 5546 5543 5540 5537 5535 5533 5531 5529 5528 5527 5527 5527 5529 5530 5532 5533 5535 5536 5538 5539 5540 5541 5543 5544 5545 5546 5546 5547 5547 5548 5548 5548 5548 5548 5548
5567 5563 5559 5556 5553 5549 5546 5543 5540 5537 5534 5531 5529 5526 5524 5521 5519 5519 5519 5519 5520 5521 5522 5524 5525 5527 5528 5529 5531 5532 5533 5534 5535 5536 5537 5537 5537 5538 5538 5538 5538 5539 5539